Location: Augsburg
(48.3836°N, 10.8929°E)
Time: 06:17:23
(UTC+01:00)

OTV 5 (USA 277) - Visible Passes

Search period start: 18 February 2018 00:00
Search period end: 28 February 2018 00:00
Orbit: 404 x 417 km, 43.0° (Epoch: 07 September)

Date Brightness Start Highest point End Pass type
(mag) Time Alt. Az. Time Alt. Az. Time Alt. Az.
21 Feb ? 05:58:30 10° S 06:00:00 13° SSE 06:01:29 10° SE visible
23 Feb ? 05:52:17 10° SSW 05:54:48 20° SSE 05:57:19 10° ESE visible
24 Feb ? 05:03:42 16° SSE 05:03:54 16° SSE 05:06:03 10° ESE visible
25 Feb ? 05:47:48 16° SW 05:49:42 28° S 05:52:35 10° ESE visible
26 Feb ? 04:59:06 24° SSE 04:59:06 24° SSE 05:01:30 10° ESE visible
27 Feb ? 05:43:07 21° SW 05:44:39 32° S 05:47:38 10° ESE visible
